Printer-friendly version

IAU Minor Planet Center

Minor Planet Center

MPEC 2006-P03 : 2006 OG15

The following Minor Planet Electronic Circular may be linked-to from your own Web pages, but must not otherwise be redistributed electronically.


Read MPEC 2006-P02 Read MPEC 2006-P04


M.P.E.C. 2006-P03                                Issued 2006 Aug. 1, 13:03 UT

     The Minor Planet Electronic Circulars contain information on unusual
         minor planets and routine data on comets.  They are published
   on behalf of Commission 20 of the International Astronomical Union by the
          Minor Planet Center, Smithsonian Astrophysical Observatory,
                          Cambridge, MA 02138, U.S.A.

                  Supported in part by the Brinson Foundation
                  Supported in part by the TABASGO Foundation
             Prepared using the Tamkin Foundation Computer Network

                              MPC@CFA.HARVARD.EDU
          URL http://cfa-www.harvard.edu/iau/mpc.html  ISSN 1523-6714

                                   2006 OG15

Observations:
     K06O15G* C2006 07 31.56314 21 28 49.54 -29 41 21.0          18.2 V EP003E12
     K06O15G  C2006 07 31.57854 21 28 50.66 -29 42 25.4          18.2 V EP003E12
     K06O15G  C2006 07 31.60708 21 28 52.71 -29 44 25.1          18.5 V EP003E12
     K06O15G  C2006 07 31.66367 21 28 56.78 -29 48 21.9          18.3 V EP003E12
     K06O15G  C2006 07 31.66645 21 28 57.00 -29 48 33.4          18.5 V EP003E12
     K06O15G  C2006 07 31.66921 21 28 57.18 -29 48 44.4          18.1 V EP003E12
     K06O15G  C2006 07 31.67198 21 28 57.36 -29 48 56.1          18.5 V EP003E12
     K06O15G  C2006 07 31.67762 21 28 57.82 -29 49 19.7          18.5 V EP003E12
     K06O15G  C2006 07 31.69218 21 28 58.87 -29 50 20.0          18.4 V EP003E12
     K06O15G  C2006 07 31.70672 21 28 59.91 -29 51 21.2          18.5 V EP003E12
     K06O15G  C2006 07 31.72125 21 29 01.03 -29 52 20.9          18.6 V EP003E12
     K06O15G  C2006 07 31.73781 21 29 02.25 -29 53 30.0          18.4 V EP003E12
     K06O15G  C2006 07 31.75309 21 29 03.44 -29 54 33.7          18.5 V EP003E12
     K06O15G  C2006 07 31.76837 21 29 04.59 -29 55 36.0          18.4 V EP003E12
     K06O15G  C2006 07 31.78369 21 29 05.78 -29 56 40.0          18.7 V EP003E12
     K06O15G  C2006 08 01.21627 21 29 45.55 -30 27 52.0          18.9 R EP003734
     K06O15G  C2006 08 01.22304 21 29 44.30 -30 27 59.8          18.4 R EP003I77
     K06O15G  C2006 08 01.22395 21 29 46.07 -30 28 24.0          19.1 R EP003734
     K06O15G  C2006 08 01.22808 21 29 44.68 -30 28 21.2          18.3 R EP003I77
     K06O15G  C2006 08 01.23011 21 29 46.61 -30 28 52.7          19.4 R EP003734
     K06O15G  C2006 08 01.23312 21 29 45.01 -30 28 41.7          18.1 R EP003I77
     K06O15G  C2006 08 01.46057 21 30 07.63 -30 44 53.9          18.3 V EP003E12
     K06O15G  C2006 08 01.46213 21 30 07.70 -30 45 00.5          18.6 V EP003E12
     K06O15G  C2006 08 01.46367 21 30 07.84 -30 45 07.5          18.4 V EP003E12
     K06O15G  C2006 08 01.46521 21 30 07.99 -30 45 14.2          18.4 V EP003E12

Observer details:
734 Farpoint Observatory.  Observer D. Tibbets.  Measurer D. Tibbets
    R. Valentine.  0.7-m reflector + CCD.
E12 Siding Spring Survey.  Observer G. J. Garradd.  Measurers E. C. Beshore,
    E. J. Christensen, G. J. Garradd, A. R. Gibbs, A. D. Grauer, R. E. Hill,
    R. A. Kowalski, S. M. Larson, R. H. McNaught.  0.5-m Uppsala Schmidt + CCD.
I77 CEAMIG-REA Observatory, Belo Horizonte.  Observers C. Jacques, E. Pimentel.
    Measurer C. Jacques.  0.30-m f/3.0 Schmidt-Cassegrain + CCD.

Orbital elements:
2006 OG15                                                Earth MOID = 0.1982 AU
Epoch 2006 Sept. 22.0 TT = JDT 2454000.5                MPC
M 356.07441              (2000.0)            P               Q
n   0.25064310     Peri.  263.76612     +0.88240309     -0.39421916
a   2.4913355      Node   119.18990     +0.45448280     +0.85537815
e   0.6160661      Incl.   17.10821     -0.12169702     +0.33603494
P   3.93           H   19.9           G   0.15           U   8
Residuals in seconds of arc
060731 E12  0.0   0.2-    060731 E12  0.4-  0.4-    060801 I77  0.2+  0.4-
060731 E12  0.1+  0.1+    060731 E12  0.2+  0.3+    060801 734  0.8+  0.8-
060731 E12  0.0   0.0     060731 E12  0.1-  0.1-    060801 I77  0.4-  0.5+
060731 E12  0.1-  0.4-    060731 E12  0.3+  0.4-    060801 E12  0.1+  0.1-
060731 E12  0.1+  0.3-    060731 E12  0.0   0.7+    060801 E12  0.6-  0.1+
060731 E12  0.2-  0.2+    060731 E12  0.1-  0.2+    060801 E12  0.4-  0.1-
060731 E12  0.4-  0.1+    060801 734  0.9+  0.1-    060801 E12  0.1-  0.0
060731 E12  0.2+  0.0     060801 I77  0.1+  0.5-
060731 E12  0.0   0.3+    060801 734  0.1-  1.2+

Ephemeris:
2006 OG15                a,e,i = 2.49, 0.62, 17                  q = 0.9565
Date    TT    R. A. (2000) Decl.     Delta      r     Elong.  Phase     V
2006 07 24    21 19.93   -22 17.4    0.364    1.370   164.1    11.7    19.1
2006 08 03    21 32.47   -32 40.0    0.284    1.288   162.4    13.8    18.5
2006 08 13    21 56.62   -48 13.3    0.228    1.209   146.1    27.8    18.3
2006 08 23    23 06.21   -67 08.8    0.204    1.137   123.6    47.8    18.5
2006 09 02    03 29.09   -76 51.0    0.208    1.072   102.0    67.0    19.0
2006 09 12    06 37.72   -66 42.4    0.233    1.019    86.4    80.4    19.6
2006 09 22    07 28.92   -55 08.7    0.267    0.980    77.3    87.3    20.1
2006 10 02    07 52.88   -45 40.5    0.304    0.960    73.4    88.9    20.4
2006 10 12    08 09.56   -37 55.2    0.340    0.958    73.4    86.7    20.5
2006 10 22    08 23.30   -31 26.7    0.372    0.977    76.3    82.0    20.6
2006 11 01    08 34.57   -25 50.2    0.397    1.013    81.5    75.7    20.6
2006 11 11    08 42.78   -20 42.1    0.415    1.064    88.6    68.4    20.5
2006 11 21    08 46.85   -15 39.3    0.426    1.128    97.8    60.3    20.5
2006 12 01    08 45.72   -10 17.8    0.433    1.199   109.0    51.0    20.4
2006 12 11    08 38.88   -04 21.8    0.442    1.277   122.4    40.6    20.3
2006 12 21    08 26.58   +02 07.6    0.460    1.359   137.6    29.2    20.2
2006 12 31    08 10.46   +08 45.3    0.494    1.443   153.9    17.5    20.1
2007 01 10    07 53.41   +14 48.5    0.550    1.528   169.8     6.5    20.0
2007 01 20    07 38.35   +19 44.1    0.632    1.613   173.4     4.0    20.3
2007 01 30    07 27.46   +23 22.8    0.738    1.698   160.3    11.3    21.1
2007 02 09    07 21.52   +25 53.8    0.865    1.782   148.4    16.9    21.7

Timothy B. Spahr             (C) Copyright 2006 MPC           M.P.E.C. 2006-P03

Read MPEC 2006-P02 Read MPEC 2006-P04


Our Web policy. Index to the CBAT/MPC/ICQ pages.


Valid HTML 4.01!